Location: ???????
(54.6339°N, 39.4245°E)
Time: 18:20:52
(UTC+00:00)

Daily predictions for brighter satellites

Satellite Brightness Start Highest point End
(mag) Time Altitude Azimuth Time Altitude Azimuth Time Altitude Azimuth
Cosmos 2154 Rocket 4.4 18:05:51 10° NNW 18:12:00 66° W 18:18:07 10° S
Nadezhda 1 Rocket 4.0 18:07:16 10° S 18:13:21 75° E 18:19:33 10° NNE
Cosmos 1814 Rocket 4.0 18:08:49 10° SSW 18:13:57 78° ESE 18:19:09 10° NNE
Cosmos 1867 3.7 18:08:37 10° NW 18:14:08 84° SW 18:19:35 10° SE
SPOT 5 4.1 18:10:17 10° SSW 18:14:14 34° W 18:18:12 10° NNW
Cosmos 2341 Rocket 4.2 18:08:14 10° N 18:14:28 60° ENE 18:20:36 10° SSE
Lacrosse 5 rocket 1.8 18:11:35 10° WNW 18:14:57 38° SW 18:18:11 10° SE
Cosmos-2242 3.1 18:17:07 10° S 18:21:17 56° E 18:25:29 10° NNE
Cosmos 2082 Rocket 3.9 18:19:35 10° SE 18:22:29 14° E 18:25:23 10° ENE
SeaSat 1 2.9 18:18:04 10° SE 18:22:51 54° NE 18:27:38 10° NNW
Cosmos 1536 4.2 18:21:09 10° N 18:24:21 24° ENE 18:27:30 10° ESE
Iridium 4 Rocket 4.0 18:19:53 10° N 18:24:50 64° W 18:30:12 10° S
Okean O Rocket 3.0 18:23:18 10° SSW 18:27:19 35° W 18:31:20 10° NNW
SPOT 3 Rocket 3.6 18:23:10 10° SSE 18:28:18 78° ENE 18:33:28 10° NNW
Cosmos 2221 3.8 18:25:07 10° SE 18:28:24 23° E 18:31:41 10° NE
Cosmos 1933 3.6 18:25:47 10° SSW 18:29:38 69° WNW 18:33:30 10° N
NOSS 2-3 (C) 4.3 18:27:07 10° WSW 18:30:40 51° NNW 18:34:54 10° NE
ERS-1 Rocket 3.9 18:27:27 10° S 18:32:17 47° W 18:37:09 10° NNW
Okean-O 3.7 18:28:31 10° S 18:32:41 42° W 18:36:53 10° NNW
Okean 1 4.5 18:33:47 10° SE 18:36:45 23° E 18:39:42 10° NE
NOSS 3-1 (C) 3.6 18:33:28 10° S 18:37:56 38° ESE 18:43:17 10° NE
Cosmos 1743 4.2 18:39:55 10° NNW 18:42:56 29° W 18:45:56 10° SSW
Spot 2 Rocket 4.0 18:38:50 10° S 18:43:47 59° WSW 18:48:48 10° NNW
Cosmos 2333 Rocket 4.0 18:39:32 10° NNW 18:44:20 26° NNE 18:49:04 10° E
Cosmos 2084 Rocket 4.3 18:43:59 10° S 18:47:39 28° SE 18:51:18 10° ENE
ISS -3.0 18:44:32 10° W 18:47:39 36° SSW 18:50:24 12° SE
Lacrosse 4 Rocket 3.7 18:44:24 10° W 18:47:53 28° NW 18:51:25 10° NNE
ARIANE 6 FM1 Upper Stage 2.5 18:45:15 10° SW 18:49:14 65° SE 18:53:16 10° ENE
IKONOS-2 4.5 18:45:23 10° NNE 18:49:31 85° WNW 18:53:38 10° SSW
Cosmos 1833 Rocket 2.7 18:44:21 10° SSW 18:49:58 70° ESE 18:55:36 10° NE
Cosmos 1821 Rocket 4.2 18:44:03 10° N 18:50:08 60° ENE 18:55:50 11° SSE
Cosmos 2218 Rocket 4.1 18:48:22 10° N 18:54:48 88° E 19:01:07 10° S
Cosmos 1356 Rocket 3.5 18:53:36 10° S 18:57:39 61° E 19:01:43 10° NNE
Cosmos 1733 3.9 18:57:34 10° NNW 19:00:27 36° W 19:03:19 10° SSW
Cosmos 2219 Rocket 4.3 18:56:19 10° NNW 19:00:33 21° NNE 19:04:46 10° ENE
Cosmos 158 Rocket 4.2 18:55:31 10° SSW 19:00:52 82° WNW 19:06:17 10° NNE
NOSS 3-1 (A) 3.9 19:03:26 10° S 19:07:38 29° ESE 19:12:34 10° ENE
USA 234 3.3 19:01:35 10° ENE 19:08:05 63° SSE 19:14:34 10° SW
Cosmos 2058 Rocket 4.4 19:04:06 10° SW 19:08:21 41° WNW 19:12:35 10° N
Cosmos 1980 Rocket 2.3 19:05:18 10° NW 19:10:54 74° WSW 19:15:43 14° SSE
Cosmos 1805 3.0 19:11:00 10° N 19:14:28 70° ENE 19:17:00 17° SSE
Cosmos 1812 Rocket 3.5 19:12:09 10° S 19:16:27 82° E 19:20:48 10° NNE
Terra 3.8 19:14:10 10° SW 19:17:52 23° W 19:21:35 10° NW
SWARM A 4.4 19:15:00 11° S 19:18:12 73° W 19:21:36 10° N
Cosmos 2181 Rocket 4.0 19:14:21 10° S 19:20:38 79° E 19:27:03 10° NNE
Cosmos 2208 Rocket 4.0 19:16:26 10° SSW 19:21:48 72° ESE 19:27:07 10° NNE
SL-16 R/B 3.0 19:16:29 10° NNW 19:21:59 47° NE 19:27:26 10° ESE
ATLAS CENTAUR R/B 1.5 19:20:06 10° SW 19:23:50 68° NW 19:27:42 10° NE
Cosmos 1315 Rocket 2.7 19:20:18 11° S 19:23:59 79° ESE 19:27:53 10° NNE
Meteor 1-11 Rocket 3.9 19:18:32 10° N 19:24:02 65° ENE 19:28:28 16° SSE
SL-24 R/B 4.1 19:22:07 10° NNE 19:26:26 81° ESE 19:30:53 10° SSW
Cosmos 2344 4.2 19:19:27 10° WSW 19:26:37 58° NNW 19:34:19 10° NE
DELTA 2 DEB (DPAF) 3.9 19:26:24 10° NNE 19:30:19 61° ESE 19:33:23 16° S
Cosmos 2322 Rocket 3.3 19:25:36 10° NNW 19:30:54 38° NE 19:36:09 10° ESE
Cosmos 2237 4.4 19:25:37 10° NNW 19:31:19 68° NE 19:36:07 15° SE
BlueWalker 3 3.7 19:32:33 10° W 19:34:58 17° SW 19:36:16 14° SSW
Meteor 1-14 Rocket 4.5 19:30:51 10° NNW 19:36:25 67° W 19:41:17 14° S
Genesis I 3.0 19:34:26 10° NW 19:37:09 49° NE 19:39:01 17° ESE
Cosmos 1975 3.5 19:35:11 10° N 19:38:40 39° ENE 19:40:57 19° SE
Ariane Rocket 4.3 19:37:26 10° SSW 19:41:59 33° W 19:46:33 10° NNW
Nadezhda 3 Rocket 4.1 19:37:18 15° S 19:42:22 62° E 19:48:31 10° NNE
Cosmos 1697 Rocket 4.3 19:38:03 10° NW 19:42:35 25° WSW 19:47:08 10° SSW
CZ-4C R/B 3.5 19:39:49 10° NNE 19:43:23 46° E 19:45:22 22° SSE
CENTAUR R/B 3.6 19:37:16 10° NW 19:44:48 63° NNE 19:53:46 10° ESE
Cosmos 1934 Rocket 4.2 19:40:00 10° N 19:46:12 64° ENE 19:51:02 18° SSE
ATLAS 3B R/B 3.8 19:42:57 16° SSE 19:47:29 29° ESE 19:53:56 10° ENE
Cosmos 2278 4.0 19:42:36 10° NNW 19:48:14 64° NE 19:52:56 15° SE
ARIANE 5 R/B 2.8 19:46:27 19° SE 19:49:25 61° ENE 19:53:46 10° N
Cosmos 1238 Rocket 3.1 19:46:06 11° SSW 19:49:32 51° WNW 19:52:42 10° N
Cosmos 2360 Rocket 3.2 19:45:21 10° NNW 19:50:42 42° NE 19:56:02 10° ESE
Cosmos 1842 Rocket 4.1 19:48:46 20° SSE 19:51:18 42° E 19:55:23 10° NNE
Cosmos 2369 4.0 19:50:02 10° NW 19:55:35 56° WSW 19:59:35 19° S
Cosmos 1766 3.3 19:52:38 10° N 19:56:03 54° ENE 19:57:53 24° SE
Cosmos 1470 3.9 19:54:17 10° N 19:57:28 29° ENE 19:59:30 17° ESE
Cosmos 1908 3.7 19:55:55 10° N 19:59:00 37° ENE 20:00:38 22° SE
Cosmos 1536 3.7 19:56:27 10° NNW 20:00:01 39° W 20:02:41 16° SSW
SeaSat 1 3.5 19:57:02 16° S 20:00:26 35° WSW 20:04:56 10° NW
CZ-2C R/B 4.0 19:58:49 10° NNE 20:03:06 49° E 20:05:39 22° SSE
Cosmos 2221 3.3 20:01:13 10° SSW 20:05:16 47° WNW 20:09:19 10° N
Cosmos 2082 Rocket 2.2 20:00:20 12° SSW 20:05:31 68° ESE 20:11:08 10° NE
Cosmos 405 Rocket 2.4 20:03:09 10° NNW 20:06:36 74° W 20:08:21 26° S
Timation 1 Rocket 4.5 20:04:14 15° S 20:09:06 57° ESE 20:14:59 10° NE
Okean 1 4.4 20:08:20 10° SW 20:11:46 36° WNW 20:15:12 10° N
KORONAS-FOTON 4.4 20:14:56 25° SE 20:16:18 36° E 20:19:32 10° NNE
Meteor 1-10 Rocket 4.4 20:11:54 15° SSW 20:16:58 83° WNW 20:22:51 10° NNE
COBE Rocket 4.1 20:12:08 10° N 20:17:14 75° WNW 20:21:35 15° SSW
Cosmos 773 Rocket 4.5 20:13:00 10° SW 20:18:05 60° WNW 20:23:10 10° NNE
Okean 3 Rocket 3.6 20:14:48 10° NNW 20:19:13 79° W 20:21:53 24° S
Cosmos 1674 3.0 20:18:53 20° WSW 20:19:49 28° WNW 20:21:48 10° N
COSMOS 2406 3.3 20:17:11 18° S 20:21:26 60° ESE 20:27:04 10° NE
Landsat 5 3.7 20:17:53 10° NNE 20:21:58 54° ESE 20:24:14 25° S
NOSS 3-2 (A) 4.4 20:16:31 10° NW 20:23:06 59° NNE 20:31:13 10° ESE
ISS -1.5 20:22:03 10° WSW 20:23:18 13° SW 20:23:18 13° SW
USA 59 Rocket -0.3 20:24:32 33° SSE 20:25:10 37° SE 20:27:57 10° ENE
BREEZE-M R/B 4.1 20:16:46 10° WNW 20:25:29 30° SW 20:27:31 21° S
Cosmos 2084 Rocket 3.8 20:22:01 10° WSW 20:26:16 67° NW 20:30:28 10° NE
NOSS 3-1 (C) 3.7 20:23:15 10° WSW 20:28:19 63° NNW 20:34:43 10° NE
ARIANE 6 FM1 Upper Stage 4.1 20:24:47 10° W 20:28:36 39° NNW 20:32:28 10° NE
Cosmos 2333 Rocket 2.3 20:23:46 10° NNW 20:29:33 77° NE 20:33:55 18° SE
Cosmos 1842 3.6 20:29:20 27° SE 20:30:37 40° E 20:33:54 10° NNE
Cosmos 1833 Rocket 4.4 20:29:13 10° WSW 20:34:20 34° NW 20:39:29 10° NNE
NOSS 2-1 (E) 3.1 20:35:16 34° S 20:36:03 41° SE 20:38:56 10° ENE
MetOp-A 4.5 20:32:58 21° S 20:36:16 53° W 20:41:22 10° NNW
Meteor 2-13 Rocket 4.5 20:35:04 19° SSW 20:39:43 86° WNW 20:45:54 10° NNE
Cosmos 1455 4.1 20:40:55 10° NE 20:42:20 13° ENE 20:43:44 10° E
Cosmos 1300 3.3 20:40:49 10° N 20:43:48 36° ENE 20:45:10 23° ESE
ALOS 2 2.6 20:42:21 26° S 20:44:48 78° WSW 20:49:14 10° NNW
Cosmos 1151 Rocket 3.5 20:42:48 25° SSE 20:44:51 46° E 20:48:55 10° NNE
Cosmos 2219 Rocket 2.7 20:40:11 10° NNW 20:45:45 56° NE 20:51:00 11° SE
Cosmos 2333 4.4 20:41:35 10° NNW 20:47:18 70° NE 20:51:55 16° SE
USA 234 3.4 20:44:45 10° ENE 20:51:18 80° NNW 20:57:52 10° W
NOSS 2-1 (D) 2.6 20:50:18 29° SSW 20:51:42 65° SE 20:54:40 10° NE
Meteor 2-4 Rocket 3.8 20:48:50 22° S 20:52:35 78° E 20:58:27 10° NNE
Meteor 1-27 Rocket 3.9 20:48:32 17° SSW 20:52:51 69° WNW 20:58:23 10° N
Cosmos 1980 Rocket 4.2 20:50:43 10° WNW 20:53:57 16° W 20:57:11 10° SW
NOSS 3-1 (A) 3.4 20:52:43 10° WSW 20:57:48 74° NW 21:04:10 10° NE
Sich 1 3.4 20:55:34 10° NNW 20:59:42 52° W 21:01:52 25° SSW
CZ-2C R/B 4.2 20:55:59 10° ESE 21:00:20 28° ENE 21:04:41 10° N
ATLAS CENTAUR R/B 3.8 20:57:26 10° WNW 21:00:34 24° NNW 21:03:46 10° NE
Cosmos 1371 Rocket 4.3 20:55:44 10° NNW 21:01:05 66° ENE 21:05:13 17° SE
BREEZE-M DEB (TANK) 3.7 20:54:06 10° W 21:03:38 36° SW 21:05:28 26° S
Cosmos 2100 Rocket 4.5 20:57:45 10° N 21:04:00 57° ENE 21:08:46 17° SSE
SL-16 R/B 2.7 21:00:44 10° NW 21:06:07 45° WSW 21:09:15 23° S
Cosmos 2056 Rocket 3.7 21:01:26 10° NNW 21:06:48 73° ENE 21:10:41 18° SE
PSLV R/B 3.5 21:03:07 10° NNE 21:07:19 67° ESE 21:09:23 28° S
Genesis I 4.3 21:08:10 10° WNW 21:09:43 17° WSW 21:09:43 17° WSW
Cosmos 1624 Rocket 4.1 21:05:37 10° NNW 21:10:51 76° ENE 21:14:39 19° SE
NOSS 2-1 (C) 2.6 21:09:43 23° SW 21:11:35 87° NW 21:14:34 10° NE
Cosmos 1975 4.4 21:10:56 10° NW 21:13:49 22° W 21:15:35 16° SW
Cosmos 1538 Rocket 3.9 21:10:27 20° SSW 21:14:03 87° WNW 21:19:15 10° NNE
Cosmos 1500 Rocket 4.1 21:10:08 10° NNW 21:14:19 46° W 21:16:34 24° SSW
Cosmos 2322 Rocket 2.4 21:09:40 10° NW 21:15:15 60° WSW 21:18:38 24° S
NOSS 3-2 (C) 4.5 21:09:55 10° NW 21:16:33 60° NNE 21:24:41 10° ESE
Exosat Rocket 4.0 21:11:47 10° NW 21:16:41 46° WSW 21:19:21 24° S
H-2A R/B 3.5 21:15:01 15° SE 21:17:52 36° ENE 21:21:27 10° N
Cosmos 1459 Rocket 4.3 21:11:54 10° N 21:17:59 63° ENE 21:22:37 18° SSE
Cosmos 1707 2.8 21:18:01 28° SW 21:19:31 53° WNW 21:22:49 10° N
COSMOS 2428 3.7 21:15:03 10° NNW 21:20:35 47° NE 21:26:05 10° ESE
Cosmos 1633 Rocket 3.3 21:16:55 10° N 21:21:16 62° ENE 21:23:51 23° SSE
Geosat FO 4.1 21:21:07 39° S 21:22:03 66° WSW 21:25:04 10° NW
Cosmos 44 Rocket 4.2 21:19:04 10° NW 21:23:43 48° NE 21:28:25 10° ESE
Meteor 2-10 Rocket 3.9 21:20:12 10° NNW 21:25:57 76° ENE 21:30:03 20° SSE
ARIANE 5 R/B 4.4 21:23:51 14° SW 21:26:09 20° W 21:29:27 10° NW
Cosmos 1066 Rocket 4.2 21:23:03 23° SSW 21:26:42 90° ENE 21:32:31 10° NNE
Cosmos 1470 3.9 21:28:58 10° NNW 21:32:02 27° W 21:33:25 21° SW
Cosmos 2173 Rocket 4.1 21:26:15 10° N 21:32:40 81° ENE 21:37:12 20° SSE
Iridium 51 4.4 21:29:09 10° N 21:32:44 59° E 21:34:33 27° SSE
Cosmos 2360 Rocket 2.5 21:29:25 10° NW 21:34:51 51° WSW 21:38:03 24° S
CENTAUR R/B 3.3 21:27:55 10° NW 21:35:51 64° SW 21:44:23 12° SSE
Meteor 1-18 Rocket 4.4 21:32:07 22° SSW 21:36:03 77° WNW 21:42:00 10° NNE
GP-B 3.2 21:32:34 10° N 21:36:57 67° W 21:39:19 26° SSW
ATLAS 3B R/B 3.0 21:30:06 11° SW 21:37:25 85° SE 21:45:20 10° NE
USA 229 DEB 3.6 21:33:24 19° SSW 21:37:56 67° SE 21:44:47 10° NE
USA 229 3.6 21:33:32 19° SSW 21:38:01 67° SE 21:44:51 10° NE
ASTEX 1 3.5 21:38:47 10° N 21:43:44 75° W 21:46:45 24° SSW
GEOS 3 Rocket 3.5 21:41:08 10° SE 21:46:15 84° SW 21:51:27 10° NW
Cosmos 1758 3.5 21:43:24 10° N 21:47:13 63° ENE 21:49:25 24° SSE
CZ-2C R/B 4.4 21:42:33 10° NNE 21:47:52 36° E 21:51:58 16° SSE
Cosmos 1328 Rocket 3.6 21:46:16 27° S 21:48:33 69° E 21:52:52 10° NNE
Cosmos 2082 Rocket 3.7 21:44:56 10° WSW 21:50:02 34° NW 21:55:11 10° NNE
Cosmos 2123 Rocket 4.4 21:46:03 19° SSE 21:50:30 57° E 21:56:42 10° NNE
In-Cosmos 22 4.3 21:49:28 23° S 21:53:10 73° E 21:58:57 10° NNE
Cosmos 2112 Rocket 4.0 22:00:57 23° SSW 22:04:15 75° ESE 22:09:29 10° NNE
Cosmos 2237 Rocket 3.3 22:00:37 10° NNW 22:06:02 45° NE 22:11:27 10° ESE
COSMOS 2406 4.5 22:00:45 10° WSW 22:06:03 38° NW 22:11:23 10° NNE
NOSS 2-2 (D) 4.0 22:09:10 10° NW 22:12:40 56° NE 22:17:16 10° ESE
Cosmos 2061 Rocket 4.3 22:06:37 10° N 22:13:05 71° ENE 22:18:50 13° SSE
Cosmos 2333 Rocket 3.5 22:08:43 10° NW 22:13:17 25° WSW 22:15:54 18° SW
USA 59 Rocket 0.9 22:11:25 10° W 22:14:09 30° NNW 22:16:52 10° NE
NOSS 3-2 (A) 4.0 22:07:14 10° NW 22:14:16 64° SW 22:22:46 10° SSE
Cosmos 1455 1.9 22:12:06 10° NNW 22:14:49 43° W 22:15:31 34° SW
Cosmos 1300 4.1 22:14:42 10° NW 22:16:55 18° W 22:17:48 16° WSW
SL-08 R/B 4.5 22:11:28 10° N 22:17:48 89° E 22:22:47 17° S
Cosmos 2322 3.7 22:15:03 10° NW 22:20:44 75° WSW 22:26:00 12° SSE
SL-14 R/B 3.2 22:18:45 26° SSW 22:20:49 85° WNW 22:24:44 10° N
Cosmos 1953 3.3 22:18:46 10° N 22:22:14 38° ENE 22:25:38 10° SE
NOSS 2-2 (C) 3.4 22:19:59 10° NW 22:23:40 89° WSW 22:28:41 10° SE
Cosmos 1110 Rocket 4.0 22:18:34 10° NNW 22:23:54 79° WSW 22:28:27 14° SSE
NOSS 2-1 (E) 4.5 22:22:29 10° W 22:25:17 30° NNW 22:28:02 10° NE
Cosmos 1437 Rocket 3.8 22:25:52 16° SSE 22:28:04 32° E 22:31:14 10° NNE
Cosmos 1452 Rocket 3.5 22:22:51 10° NNW 22:28:07 86° WSW 22:33:06 11° SSE
Meteor 1-13 Rocket 4.4 22:24:25 20° S 22:28:39 83° E 22:34:38 10° NNE
Cosmos 2219 Rocket 2.9 22:24:25 10° NW 22:29:30 36° WSW 22:32:39 20° SSW
Cosmos 494 Rocket 3.9 22:27:54 21° SSW 22:31:21 83° ESE 22:36:33 10° NNE
USA 234 3.5 22:27:43 10° E 22:34:15 76° N 22:40:47 10° WNW
IRIDIUM 114 4.4 22:31:47 19° S 22:35:39 82° E 22:40:54 10° N
ATLAS CENTAUR R/B 4.2 22:35:01 10° NW 22:37:50 19° N 22:40:41 10° NE
CZ-2C R/B 2.7 22:36:30 18° S 22:40:17 61° WSW 22:45:25 10° NNW
SL-16 R/B 4.1 22:36:23 10° NNW 22:41:29 33° NE 22:46:33 10° ESE
Cosmos 1048 Rocket 4.1 22:39:54 20° S 22:43:28 66° ESE 22:48:33 10° NNE
Cosmos 1680 Rocket 4.0 22:39:24 15° SW 22:43:35 54° NW 22:48:43 10° NNE
Cosmos 2016 Rocket 4.2 22:37:49 10° NNW 22:43:50 57° W 22:48:31 17° SSW
IRIDIUM 103 4.3 22:40:55 19° S 22:44:48 86° W 22:50:04 10° N
Cosmos 2297 Rocket 3.5 22:44:12 11° SSE 22:48:46 30° ESE 22:53:36 10° NE
H-2A R/B 3.4 22:50:24 20° SW 22:52:18 29° W 22:55:43 10° NW
Cosmos 1331 Rocket 4.2 22:49:58 10° NW 22:55:00 51° WSW 22:59:07 15° S
Cosmos 2322 Rocket 4.2 22:55:57 10° WNW 22:58:07 12° W 23:00:16 10° WSW
Cosmos 1302 Rocket 4.0 22:53:36 10° NNW 22:58:50 90° NNE 23:04:05 10° SSE
Aureole 3 Rocket 3.9 22:54:54 10° N 22:59:49 50° ENE 23:03:27 10° SSE
Cosmos 921 Rocket 4.2 22:57:50 12° SSE 23:01:12 32° ESE 23:04:56 10° NE
Cosmos 1933 Rocket 4.0 22:58:07 10° NNW 23:02:23 46° W 23:05:27 18° SSW
IRIDIUM 106 4.5 22:59:11 17° SSW 23:03:09 64° W 23:08:22 10° N
COSMOS 2428 3.1 22:59:26 10° NW 23:04:52 46° WSW 23:09:57 12° S
Cosmos 44 Rocket 3.6 23:00:35 10° NW 23:05:10 46° SW 23:09:49 10° SSE
NOSS 3-2 (C) 4.1 23:00:43 10° NW 23:07:46 62° SW 23:16:15 10° SSE
SL-16 R/B 4.1 23:03:11 10° ESE 23:08:43 36° NE 23:14:16 10° N
Cosmos 2292 Rocket 4.1 23:06:34 13° S 23:11:40 70° E 23:16:02 10° NNE
FENGYUN 3A 4.5 23:07:48 10° NNE 23:12:59 45° E 23:18:07 10° S
Cosmos 1980 3.7 23:07:31 10° NW 23:13:13 76° WSW 23:18:51 10° SSE
Cosmos 2227 Rocket 4.0 23:09:50 10° SSE 23:14:11 23° ESE 23:18:32 10° NE
Cosmos 1869 Rocket 3.9 23:10:37 10° NNW 23:14:57 51° W 23:18:29 15° SSW
IDEFIX/ARIANE 42P 2.8 23:09:42 10° NNE 23:14:58 71° ESE 23:19:43 13° S
USA 238 DEB 4.0 23:09:08 10° NW 23:16:20 88° NE 23:24:15 10° SE
USA 238 4.0 23:09:13 10° NW 23:16:26 87° NE 23:24:21 10° SE
Cosmos 1515 Rocket 4.4 23:14:53 15° SW 23:18:06 39° WNW 23:22:15 10° N
NOSS 0 Rocket 4.2 23:14:00 10° NW 23:20:00 50° WSW 23:25:57 10° S
Resurs 1-4 Rocket 3.1 23:15:41 10° NNE 23:20:41 41° E 23:25:38 10° SSE
CENTAUR R/B 4.4 23:19:27 10° WNW 23:25:34 23° WSW 23:31:24 12° SSW
CZ-2C R/B 3.8 23:22:13 10° N 23:27:51 54° WNW 23:32:58 12° SW
Okean 2 3.4 23:24:22 12° S 23:27:53 73° E 23:31:51 10° NNE
ATLAS 3B R/B 3.9 23:21:26 10° W 23:28:55 51° NNW 23:36:36 10° NE
USA 229 DEB 4.4 23:22:55 10° W 23:29:09 53° NNW 23:36:13 10° NE
USA 229 4.4 23:23:01 10° W 23:29:15 53° NNW 23:36:17 10° NE
H-2A R/B 2.0 23:25:21 10° NNE 23:29:31 75° ESE 23:33:14 12° S
Meteor 1-21 4.3 23:24:56 14° SSW 23:29:51 72° WNW 23:35:31 10° NNE
NOSS 2-2 (E) 3.7 23:30:21 10° WNW 23:34:02 48° SW 23:39:00 10° SSE
NPP 3.7 23:32:02 10° NNE 23:37:29 89° ESE 23:42:48 10° SSW
Cosmos 1733 Rocket 3.1 23:33:47 10° NNW 23:38:12 72° W 23:42:36 10° S
Cosmos 614 Rocket 4.2 23:34:34 12° SSW 23:39:26 71° ESE 23:44:38 10° NNE
Cosmos 1992 Rocket 4.0 23:34:42 10° NNW 23:39:56 79° WSW 23:45:07 10° SSE
SAR-Lupe-3 4.0 23:37:51 10° S 23:40:48 71° WSW 23:43:46 10° NNW
COSMOS 2455 2.9 23:36:02 10° NW 23:42:07 90° NE 23:48:09 10° SE
ADEOS II 3.0 23:40:44 10° NNE 23:45:46 44° E 23:50:45 10° S
Lacrosse 4 Rocket 3.4 23:42:00 10° NNW 23:45:46 34° NE 23:49:35 10° ESE
Cosmos 1862 Rocket 3.8 23:41:31 10° S 23:45:55 74° E 23:50:23 10° NNE
GENESIS II 3.4 23:43:00 10° NW 23:45:56 60° SW 23:48:52 10° SSE
Cosmos 2228 Rocket 3.3 23:42:52 10° S 23:47:24 74° E 23:51:58 10° NNE
Cosmos 1703 3.1 23:44:39 10° S 23:48:05 74° E 23:51:35 10° NNE
ARIANE 6 FM1 Upper Stage 3.8 23:44:26 10° NW 23:48:25 48° NNE 23:52:29 10° ESE
ALOS 3.3 23:45:48 10° NNE 23:50:09 42° E 23:54:29 10° S
Cosmos 2237 Rocket 2.5 23:44:47 10° NW 23:50:11 47° WSW 23:55:34 10° S
USA 281 3.6 23:46:26 10° NNE 23:52:58 63° ESE 23:59:29 10° SSW
CZ-2D R/B 2.5 23:48:25 10° NNE 23:53:53 68° ESE 23:59:20 10° S
